Location: Heiligenberg
(48.5381°N, 7.3897°E)
Time: 20:20:34
(UTC+00:00)

MSX - Pass Details

Date: 26 May 2022
Orbit: 896 x 905 km, 98.9° (Epoch: 02 July)

Event Time Altitude Azimuth Distance (km) Brightness Sun altitude
Rises 02:13:47 0° 14° (NNE) 3,535 8.2 -11.1°
Reaches altitude 10° 02:16:12 10° 14° (NNE) 2,591 7.4 -10.8°
Maximum altitude 02:22:00 87° 287° (WNW) 911 3.9 -10.2°
Drops below altitude 10° 02:27:46 10° 198° (SSW) 2,579 5.7 -9.6°
Enters shadow 02:27:58 - 198° (SSW) 2,660 5.7 -9.6°
